Regional Weather Roundup
Issued by NWS

Home | Current Version | Previous Version | Text Only | Print | Product List | Glossary On
Versions: 1 2 3 4 5 6 7 8 9 10 11 12 13 14 15 16 17 18 19 20 21 22 23 24 25 26 27 28 29 30 31 32 33 34 35 36 37 38 39 40 41 42 43 44 45 46 47 48 49 50
000
ASUS43 KLMK 302010
RWRKY
KENTUCKY REGIONAL WEATHER ROUNDUP
NATIONAL WEATHER SERVICE LOUISVILLE KY
400 PM EDT MON MAY 30 2016

NOTE "FAIR" INDICATES FEW OR NO CLOUDS BELOW 12,000 FEET
WITH NO SIGNIFICANT WEATHER AND/OR OBSTRUCTIONS TO VISIBILITY.

KYZ001>023-026-027-061>063-070>075-302100-
WESTERN AND SOUTH CENTRAL KENTUCKY

CITY           SKY/WX    TMP DP  RH WIND       PRES   REMARKS
PADUCAH        SUNNY     87  59  38 E5        30.02F
HENDERSON      SUNNY     86  57  37 N7        30.01F
OWENSBORO      SUNNY     87  59  38 VRB7      30.02F
HOPKINSVILLE   SUNNY     83  60  45 NE6       30.02F
BOWLING GREEN  MOSUNNY   87  58  37 MISG      30.02F
GLASGOW        MOSUNNY   84  55  37 N3        30.02F
$$

KYZ024-025-028>034-038-045-046-053-302100-
NORTH CENTRAL KENTUCKY

CITY           SKY/WX    TMP DP  RH WIND       PRES   REMARKS
LOUISVILLE/SDF MOSUNNY   88  57  34 NW8       30.01F
LOUISVILLE/LOU SUNNY     87  58  37 NW7       30.02F
FORT KNOX      MOSUNNY   85  58  40 NW2       30.01F
$$

KYZ035>037-039>044-047>052-055>060-089>105-302100-
NORTHEAST KENTUCKY

CITY           SKY/WX    TMP DP  RH WIND       PRES   REMARKS
LEXINGTON      SUNNY     84  61  45 N10       30.02F
COVINGTON      MOSUNNY   86  56  35 NW13      30.02F
FRANKFORT      SUNNY     86  56  35 N8        30.01F
$$

KYZ054-064>069-076>088-106>120-302100-
SOUTHEAST KENTUCKY

CITY           SKY/WX    TMP DP  RH WIND       PRES   REMARKS
JACKSON        MOSUNNY   83  61  47 N3        30.03S
LONDON         MOSUNNY   83  64  52 NE7       30.02F
SOMERSET       SUNNY     82  55  39 N8        30.03S
MIDDLESBORO    CLOUDY    79  64  60 W7        30.01F
MONTICELLO     CLEAR     85  61  44 N12       30.04S
$$





USA.gov is the U.S. government's official web portal to all federal, state and local government web resources and services.